TimeMST,TemperatureF,Dew PointF,Humidity,Sea Level PressureIn,VisibilityMPH,Wind Direction,Wind SpeedMPH,Gust SpeedMPH,PrecipitationIn,Events,Conditions,WindDirDegrees,DateUTC
12:54 AM,19.9,16.0,85,30.30,10.0,South,3.5,-,N/A,,Clear,170,2013-01-31 07:54:00
1:54 AM,21.0,17.1,85,30.30,10.0,SE,4.6,-,N/A,,Clear,140,2013-01-31 08:54:00
2:54 AM,26.1,19.0,75,30.27,10.0,Calm,Calm,-,N/A,,Clear,0,2013-01-31 09:54:00
3:54 AM,19.0,15.1,85,30.29,10.0,Calm,Calm,-,N/A,,Clear,0,2013-01-31 10:54:00
4:54 AM,19.0,14.0,81,30.30,10.0,Calm,Calm,-,N/A,,Clear,0,2013-01-31 11:54:00
5:54 AM,19.9,16.0,85,30.31,10.0,South,5.8,-,N/A,,Clear,180,2013-01-31 12:54:00
6:54 AM,19.9,16.0,85,30.34,10.0,Calm,Calm,-,N/A,,Clear,0,2013-01-31 13:54:00
7:54 AM,16.0,12.0,84,30.38,10.0,Calm,Calm,-,N/A,,Clear,0,2013-01-31 14:54:00
8:54 AM,26.1,19.9,78,30.36,10.0,NE,3.5,-,N/A,,Clear,40,2013-01-31 15:54:00
9:54 AM,30.9,21.9,69,30.35,10.0,Calm,Calm,-,N/A,,Clear,0,2013-01-31 16:54:00
10:54 AM,35.1,24.1,64,30.33,10.0,North,3.5,-,N/A,,Clear,360,2013-01-31 17:54:00
11:54 AM,41.0,25.0,53,30.28,10.0,Calm,Calm,-,N/A,,Clear,0,2013-01-31 18:54:00
12:54 PM,44.1,25.0,47,30.29,10.0,Calm,Calm,-,N/A,,Clear,0,2013-01-31 19:54:00
1:54 PM,46.0,25.0,44,30.26,10.0,Variable,3.5,-,N/A,,Clear,0,2013-01-31 20:54:00
2:54 PM,48.0,21.9,36,30.23,10.0,NNW,5.8,-,N/A,,Clear,340,2013-01-31 21:54:00
3:54 PM,46.9,19.9,34,30.26,10.0,NW,4.6,-,N/A,,Clear,320,2013-01-31 22:54:00
4:54 PM,46.9,21.9,37,30.25,10.0,North,4.6,-,N/A,,Clear,350,2013-01-31 23:54:00
5:54 PM,42.8,23.0,46,30.25,10.0,Calm,Calm,-,N/A,,Clear,0,2013-02-01 00:54:00
6:54 PM,36.0,25.0,64,30.29,10.0,Calm,Calm,-,N/A,,Clear,0,2013-02-01 01:54:00
7:54 PM,32.0,23.0,69,30.25,10.0,SSE,4.6,-,N/A,,Clear,160,2013-02-01 02:54:00
8:54 PM,30.9,21.9,69,30.30,10.0,SSE,6.9,-,N/A,,Clear,160,2013-02-01 03:54:00
9:54 PM,30.9,21.0,67,30.29,10.0,Calm,Calm,-,N/A,,Clear,0,2013-02-01 04:54:00
11:54 PM,21.2,17.6,86,30.26,5.0,SSW,3.5,-,N/A,,Clear,200,2013-02-01 06:54:00